127  
ASUS41 KOKX 180314  
RWROKX  
 
REGIONAL WEATHER ROUNDUP  
NATIONAL WEATHER SERVICE NEW YORK NY  
1100 PM EDT SAT APR 17 2021  
 
NOTE: "FAIR" INDICATES FEW OR NO CLOUDS BELOW 12,000 FEET WITH NO  
SIGNIFICANT WEATHER AND/OR S TO VISIBILITY
.  
 
NYZ071-072-176-178-NJZ106-104-180400-  
NEW YORK CITY METRO AREA  
 
CITY SKY/WX TMP DP RH WIND PRES REMARKS
 
CENTRAL PARK CLOUDY 51 35 54 CALM 29.84F  
BRONX LEHMAN C N/A 50 36 57 NW3 N/A  
LAGUARDIA ARPT CLOUDY 52 35 52 N6 29.81F  
QUEENS COLLEGE N/A 50 36 57 N3 N/A  
KENNEDY INTL CLOUDY 51 36 56 NE3 29.83S  
BREEZY POINT N/A 52 N/A N/A NW6 N/A  
BROOKLYN COLL N/A 52 34 50 W5 N/A  
STATEN ISLAND N/A 52 34 50 NW5 N/A  
NEWARK/LIBERTY CLOUDY 51 33 50 NW7 29.82F  
TETERBORO CLOUDY 49 36 61 NW5 29.81F  

 
 
NYZ177-179-078>081-180400-  
LONG ISLAND NEW YORK  
 
CITY SKY/WX TMP DP RH WIND PRES REMARKS
 
JONES BEACH N/A 50 N/A N/A MISG N/A  
WANTAGH N/A 50 37 62 NW2 N/A  
HEMPSTEAD NOT AVBL  
MATINECOCK PT N/A 50 N/A N/A W5 N/A  
FARMINGDALE CLOUDY 51 35 54 CALM 29.82S  
MACARTHUR/ISP CLOUDY 49 36 61 N5 29.81S  
SHIRLEY CLOUDY 50 35 56 N5 29.81F  
MT SINAI HARB N/A 46 N/A N/A NW1 N/A  
WESTHAMPTON CLOUDY 45 38 76 CALM 29.82F  
EAST HAMPTON CLOUDY 44 38 80 CALM 29.81S  
SOUTHOLD N/A 46 39 76 N2 N/A  
MONTAUK N/A 48 39 71 CALM 29.82S  

 
 
NYZ052-065-067-180400-  
HUDSON VALLEY  
 
CITY SKY/WX TMP DP RH WIND PRES REMARKS
 
WHITE PLAINS CLOUDY 47 36 65 NW5 29.80F  
LARCHMONT HARB N/A 48 N/A N/A W3 N/A  
CROTON ON HUDS N/A 48 N/A N/A MISG N/A  
SOMERS N/A 45 37 76 W1 N/A  
BREWSTER N/A 43 36 75 CALM N/A  
NEWBURGH CLOUDY 46 37 71 W6 29.81F  
MONTGOMERY CLOUDY 44 39 82 CALM 29.80F  
OTISVILLE N/A 46 36 66 W3 N/A  
WARWICK N/A 45 39 81 W1 N/A  
SUFFERN N/A 46 36 66 W2 N/A  
POUGHKEEPSIE CLOUDY 46 38 73 CALM 29.80F  
ALBANY CLOUDY 39 38 96 CALM 29.82S  

 
 
NJZ001-105-106-008-010-013-015-019>022-104-180400-  
NEW JERSEY  
 
CITY SKY/WX TMP DP RH WIND PRES REMARKS
 
NEWARK/LIBERTY CLOUDY 51 33 50 NW7 29.82F  
TETERBORO CLOUDY 49 36 61 NW5 29.81F  
CALDWELL CLOUDY 51 34 52 CALM 29.83S  
SOMERVILLE CLOUDY 48 40 73 CALM 29.82S  
LINDEN CLOUDY 51 34 52 NW3 29.83S  
PERTH AMBOY N/A 50 N/A N/A NW6 N/A  
SUSSEX LGT RAIN 49 34 56 CALM 29.82F  
ANDOVER N/A 47 38 71 CALM 29.83S  
TRENTON CLOUDY 49 37 63 NW3 29.84S  
MILLVILLE MOCLDY 52 40 63 CALM 29.84S  
ATLANTIC CITY CLOUDY 51 39 63 CALM 29.84S  
WRIGHTSTOWN CLOUDY 49 39 68 W5 29.84S  
TOMS RIVER CLOUDY 47 43 86 SW3 29.85S  
BELMAR CLOUDY 49 40 71 W6 29.85R  

 
 
PAZ047>061-062-071-180400-  
EASTERN PENNSYLVANIA  
 
CITY SKY/WX TMP DP RH WIND PRES REMARKS
 
PHILADELPHIA CLOUDY 53 37 54 N6 29.85S  
ALLENTOWN CLOUDY 46 37 71 W3 29.84S  
SCRANTON CLOUDY 47 36 65 CALM 29.83S  

 
 
CTZ002-004>006-009-010-012-RIZ004-006-007-MAZ004-011-015-180400-  
SOUTHERN NEW ENGLAND  
 
IN CT  
 
CITY SKY/WX TMP DP RH WIND PRES REMARKS
 
BRADLEY INTL CLOUDY 46 36 68 CALM 29.81S  
HARTFORD CLOUDY 47 37 68 CALM 29.81S  
DANBURY CLOUDY 47 36 65 CALM 29.82S  
WTRBURY/OXFORD CLOUDY 45 36 70 CALM 29.81S  
NORWALK HARBOR N/A 48 N/A N/A W3 N/A  
BRIDGEPORT CLOUDY 50 34 54 NW3 29.81F  
MERIDEN CLOUDY 47 36 65 CALM 29.81S  
NEW HAVEN CLOUDY 51 36 56 NW3 29.81S  
CHESTER CLOUDY 45 36 70 CALM 29.81S  
GROTON CLOUDY 46 35 65 NW5 29.80S  
WILLIMANTIC CLOUDY 44 36 73 CALM 29.81R  
 
IN RI  
 
CITY SKY/WX TMP DP RH WIND PRES REMARKS
 
PROVIDENCE CLOUDY 45 38 76 CALM 29.79F  
BLOCK ISLAND CLOUDY 43 39 86 W5 29.81S  
WESTERLY CLOUDY 41 39 93 CALM 29.80S  
 
IN MA  
 
CITY SKY/WX TMP DP RH WIND PRES REMARKS
 
BOSTON CLOUDY 48 35 60 NW5 29.78F  
WORCESTER CLOUDY 41 34 76 NW9 29.77S  
WESTFIELD CLOUDY 42 38 85 CALM 29.80S  
PROVINCETOWN CLOUDY 42 38 85 W6 29.79S  
NANTUCKET CLOUDY 43 37 79 CALM 29.79S  

 
 
ANZ330-335-338-340-345-350-353-355-180400-  
COASTAL MARINE OBSERVATIONS  
 
 
STATION/POSITION TIME SKY/WX TEMP WIND PRES VSBY WAVE
 
AIR SEA DIR/SP/G HT/PER  
(UTC) (F) (DEG/KT/KT) (MB) (MI) (FT/S)  
NY HARB ENTRANCE 0250 46 310/ 8/ 10 1009.2 2/10  
20 S FIRE ISLAND 0250 47 240/ 8/ 10 1009.1 2/ 9  
GREAT SOUTH BAY 0230 51 53 320/ 4/ 6 N/A  
23 SSW MONTAUK P 0250 46 46 280/ 8/ 10 1009.5 3/ 9  
15 E BARNEGAT LI 0256 47 N/A 2/12  
HUDSON CANYON NOT AVBL  
KINGS POINT 0224 50 30/ 1/ 2 1010.6  
EXECUTION ROCKS NOT AVBL  
WESTERN LI SOUND NOT AVBL  
CENTRAL LI SOUND 0200 47 44 280/ 4/ 4 N/A 0  
ROBBINS REEF 0224 52 350/ 9/ 11 1009.7  

 
 
>>>>>>>>>>>>>>>>>>>>>>>>>>>> KEY <<<<<<<<<<<<<<<<<<<<<<<<<<<  
> <  
> SKY/WX - SKY CONDITION/PRESENT WEATHER <  
> TMP - TEMPERATURE IN FAHRENHEIT <  
> DP - DEW POINT IN FAHRENHEIT <  
> RH - RELATIVE HUMIDITY IN PERCENT <  
> WIND - DIRECTION (FROM) AND SPEED IN MPH <  
> PRES - MEAN SEA LEVEL PRESSURE (INCHES OF HG) <  
> WCI - WIND CHILL INDEX <  
> VSB - VISIBILITY IN MILES <  
> HX - HEAT INDEX <  
> TC - TEMPERATURE IN CELSIUS <  
> VRB - VARIABLE WIND DIRECTION <  
> <  
>>>>>>>>>>>>>>>>>>>>>>>>>>>> KEY <<<<<<<<<<<<<<<<<<<<<<<<<<<  
 
 
CLICK HERE TO GO TO PREVIOUS BULLETINS.

The Nexlab NY Page
The Nexlab NJ Page
The Nexlab CT Page Main Text Page